Content
SEND FEEDBACK

Daily
Averages
Monthly
Summary
United States of America

NEW YORK - CENTRAL PARK, NEW YORK


Home > North America > United States > New York
Elevation: 14 feet     Latitude: 40 47N     Longitude: 073 58W

WEATHER
 
SELECT A DAY
Number of Records: 148,413;   Date Range: 11/1/95 - 9/21/14
 
SHARE

PRINT THIS DATA

[ ← Previous Day ]
WEATHER ALMANAC - MARCH 6, 2013
[ Next Day → ]
[ °C ]   °F
Weather ElementAverageHighLow
Temperature39.4 °F41 °F (11:51 am)37.9 °F (3:51 am)
Dewpoint30 °F34 °F (11:51 am)26.1 °F (9:51 pm)
Humidity69.1 %79 % (6:51 am)57 % (6:51 pm)
Barometer29.90 in29.96 in (1:51 am)29.86 in (11:51 am)
Wind Speed15.8 mph24.2 mph (10:51 pm)
Wind Gust46 mph (6:51 pm)
Weather ElementAverage
Visibility10 mi
Wind DirectionENE (63.2 °)

Weather ElementTotal
Precipitation---
Heating Degree Days25.6 (Base 65)
Averaged from 28 records on March 6, 2013
WEATHER CONDITIONS BREAKOUT
WIND DIRECTION BREAKOUT
WEATHER BY HOUR - MARCH 6, 2013
[ °C ]   °F
Local TimeTemperatureDewpointHumidityBarometerVisibilityWind DirectionWind SpeedGust SpeedPrecipitationEventsConditions
1:51 AM39.0 °F30.0 °F70 %29.96 in10.0 miEast (90°)5.8 mphScattered Clouds
2:51 AM39.0 °F30.0 °F70 %29.94 in10.0 miVariable3.5 mphClear
3:51 AM37.9 °F30.0 °F73 %29.91 in10.0 miEast (80°)10.4 mphOvercast
4:51 AM39.0 °F30.0 °F70 %29.92 in10.0 miESE (110°)12.7 mph23.0 mphOvercast
5:39 AM39.0 °F30.0 °F70 %29.93 in10.0 miEast (80°)6.9 mph17.3 mphOvercast
5:51 AM39.0 °F30.0 °F70 %29.91 in10.0 miENE (70°)10.4 mph20.7 mphOvercast
6:10 AM37.9 °F30.9 °F76 %29.93 in10.0 miENE (70°)11.5 mph20.7 mphOvercast
6:51 AM37.9 °F32.0 °F79 %29.90 in10.0 miENE (70°)15.0 mph25.3 mphOvercast
7:41 AM37.9 °F32.0 °F79 %29.91 in10.0 miENE (70°)23.0 mph32.2 mphOvercast
7:51 AM37.9 °F32.0 °F79 %29.89 in10.0 miENE (70°)19.6 mph28.8 mphOvercast
8:51 AM37.9 °F32.0 °F79 %29.91 in10.0 miEast (80°)12.7 mph24.2 mphOvercast
9:51 AM39.0 °F32.0 °F76 %29.89 in10.0 miENE (70°)20.7 mph32.2 mphOvercast
10:51 AM39.9 °F33.1 °F77 %29.88 in10.0 miENE (70°)19.6 mph32.2 mphOvercast
11:01 AM39.9 °F33.1 °F77 %29.90 in10.0 miENE (60°)13.8 mph28.8 mphOvercast
11:51 AM41.0 °F34.0 °F76 %29.86 in10.0 miENE (70°)13.8 mph34.5 mphOvercast
12:51 PM41.0 °F32.0 °F70 %29.86 in10.0 miEast (80°)18.4 mph32.2 mphOvercast
1:13 PM41.0 °F30.9 °F67 %29.89 in10.0 miENE (70°)18.4 mph32.2 mphOvercast
1:51 PM41.0 °F30.9 °F67 %29.86 in10.0 miENE (70°)21.9 mph35.7 mphOvercast
2:51 PM41.0 °F30.0 °F65 %29.86 in10.0 miENE (60°)15.0 mph38.0 mphOvercast
3:51 PM39.9 °F28.9 °F65 %29.86 in10.0 miENE (60°)18.4 mph29.9 mphOvercast
4:51 PM41.0 °F28.0 °F60 %29.87 in10.0 miNE (50°)20.7 mph29.9 mphOvercast
5:51 PM41.0 °F28.0 °F60 %29.88 in10.0 miNE (40°)23.0 mph36.8 mphOvercast
6:51 PM41.0 °F27.0 °F57 %29.91 in10.0 miNE (50°)19.6 mph46.0 mphOvercast
7:51 PM39.9 °F27.0 °F60 %29.91 in10.0 miNE (50°)15.0 mph25.3 mphOvercast
8:51 PM39.0 °F27.0 °F62 %29.93 in10.0 miNE (50°)17.3 mph29.9 mphOvercast
9:51 PM39.0 °F26.1 °F60 %29.92 in10.0 miNE (40°)13.8 mph34.5 mphOvercast
10:51 PM39.0 °F26.1 °F60 %29.93 in10.0 miNE (50°)24.2 mph35.7 mphOvercast
11:51 PM37.9 °F26.1 °F62 %29.93 in10.0 miNE (40°)16.1 mph33.4 mphOvercast
Hourly data recorded from KNYC, located miles away from New York - Central Park, New York







STORIES FROM OUR PARTNERS